Time,TemperatureF,DewpointF,PressureIn,WindDirection,WindDirectionDegrees,WindSpeedMPH,WindSpeedGustMPH,Humidity,HourlyPrecipIn,Conditions,Clouds,dailyrainin,SoftwareType,DateUTC
2013-11-26 00:02:00,27.5,22.5,30.21,WNW,284,0.0,5.0,81,0.00,,,0.00,WeatherCatV1.21B27,2013-11-26 06:02:00,
2013-11-26 00:07:00,27.5,22.5,30.21,WNW,301,1.0,5.0,81,0.00,,,0.00,WeatherCatV1.21B27,2013-11-26 06:07:00,
2013-11-26 00:12:00,27.9,22.5,30.21,WNW,293,6.0,6.0,80,0.00,,,0.00,WeatherCatV1.21B27,2013-11-26 06:12:00,
2013-11-26 00:17:00,28.5,22.8,30.21,NW,305,2.0,5.0,79,0.00,,,0.00,WeatherCatV1.21B27,2013-11-26 06:17:00,
2013-11-26 00:22:00,28.9,22.9,30.21,West,281,1.0,5.0,78,0.00,,,0.00,WeatherCatV1.21B27,2013-11-26 06:22:00,
2013-11-26 00:27:00,29.3,23.3,30.21,NW,308,3.0,6.0,78,0.00,,,0.00,WeatherCatV1.21B27,2013-11-26 06:27:00,
2013-11-26 00:32:00,29.4,23.4,30.21,West,280,5.0,5.0,78,0.00,,,0.00,WeatherCatV1.21B27,2013-11-26 06:32:00,
2013-11-26 00:37:00,29.6,23.3,30.21,NW,318,4.0,8.0,77,0.00,,,0.00,WeatherCatV1.21B27,2013-11-26 06:37:00,
2013-11-26 00:42:00,29.9,23.3,30.21,WNW,301,1.0,6.0,76,0.00,,,0.00,WeatherCatV1.21B27,2013-11-26 06:42:00,
2013-11-26 00:47:00,30.1,23.5,30.21,NW,311,7.0,8.0,76,0.00,,,0.00,WeatherCatV1.21B27,2013-11-26 06:47:00,
2013-11-26 00:52:00,30.1,23.5,30.21,North,355,7.0,8.0,76,0.00,,,0.00,WeatherCatV1.21B27,2013-11-26 06:52:00,
2013-11-26 00:57:00,30.1,23.5,30.21,North,5,8.0,9.0,76,0.00,,,0.00,WeatherCatV1.21B27,2013-11-26 06:57:00,
2013-11-26 01:02:00,30.2,23.2,30.21,NNW,332,3.0,7.0,75,0.00,,,0.00,WeatherCatV1.21B27,2013-11-26 07:02:00,
2013-11-26 01:07:00,30.2,23.6,30.21,WNW,301,3.0,6.0,76,0.00,,,0.00,WeatherCatV1.21B27,2013-11-26 07:07:00,
2013-11-26 01:12:00,30.2,23.6,30.21,NW,316,8.0,8.0,76,0.00,,,0.00,WeatherCatV1.21B27,2013-11-26 07:12:00,
2013-11-26 01:17:00,30.2,23.6,30.21,West,280,4.0,5.0,76,0.00,,,0.00,WeatherCatV1.21B27,2013-11-26 07:17:00,
2013-11-26 01:22:00,30.2,23.2,30.20,NW,317,5.0,8.0,75,0.00,,,0.00,WeatherCatV1.21B27,2013-11-26 07:22:00,
2013-11-26 01:27:00,30.3,23.0,30.20,NW,305,6.0,9.0,74,0.00,,,0.00,WeatherCatV1.21B27,2013-11-26 07:27:00,
2013-11-26 01:32:00,30.3,22.7,30.21,NW,307,5.0,11.0,73,0.00,,,0.00,WeatherCatV1.21B27,2013-11-26 07:32:00,
2013-11-26 01:37:00,30.3,23.0,30.21,WNW,301,4.0,7.0,74,0.00,,,0.00,WeatherCatV1.21B27,2013-11-26 07:37:00,
2013-11-26 01:42:00,30.3,23.0,30.21,WNW,302,7.0,8.0,74,0.00,,,0.00,WeatherCatV1.21B27,2013-11-26 07:42:00,
2013-11-26 01:47:00,30.2,22.9,30.21,NW,320,5.0,9.0,74,0.00,,,0.00,WeatherCatV1.21B27,2013-11-26 07:47:00,
2013-11-26 01:52:00,30.1,22.8,30.21,WNW,286,12.0,12.0,74,0.00,,,0.00,WeatherCatV1.21B27,2013-11-26 07:52:00,
2013-11-26 01:57:00,30.1,22.8,30.21,West,274,4.0,13.0,74,0.00,,,0.00,WeatherCatV1.21B27,2013-11-26 07:57:00,
2013-11-26 02:02:00,29.9,22.6,30.21,NW,321,4.0,7.0,74,0.00,,,0.00,WeatherCatV1.21B27,2013-11-26 08:02:00,
2013-11-26 02:07:00,29.9,23.0,30.21,NW,314,1.0,8.0,75,0.00,,,0.00,WeatherCatV1.21B27,2013-11-26 08:07:00,
2013-11-26 02:12:00,29.8,22.9,30.22,West,281,1.0,9.0,75,0.00,,,0.00,WeatherCatV1.21B27,2013-11-26 08:12:00,
2013-11-26 02:17:00,29.8,22.9,30.22,NW,309,2.0,9.0,75,0.00,,,0.00,WeatherCatV1.21B27,2013-11-26 08:17:00,
2013-11-26 02:22:00,29.8,22.9,30.22,NW,309,6.0,9.0,75,0.00,,,0.00,WeatherCatV1.21B27,2013-11-26 08:22:00,
2013-11-26 02:27:00,29.9,23.0,30.23,NW,307,9.0,9.0,75,0.00,,,0.00,WeatherCatV1.21B27,2013-11-26 08:27:00,
2013-11-26 02:32:00,29.9,23.0,30.23,NW,321,3.0,6.0,75,0.00,,,0.00,WeatherCatV1.21B27,2013-11-26 08:32:00,
2013-11-26 02:37:00,29.8,22.9,30.23,NW,326,3.0,9.0,75,0.00,,,0.00,WeatherCatV1.21B27,2013-11-26 08:37:00,
2013-11-26 02:42:00,29.7,22.5,30.23,WNW,295,5.0,8.0,74,0.00,,,0.00,WeatherCatV1.21B27,2013-11-26 08:42:00,
2013-11-26 02:47:00,29.5,22.6,30.23,WNW,302,6.0,8.0,75,0.00,,,0.00,WeatherCatV1.21B27,2013-11-26 08:47:00,
2013-11-26 02:52:00,29.4,22.5,30.23,WNW,296,2.0,6.0,75,0.00,,,0.00,WeatherCatV1.21B27,2013-11-26 08:52:00,
2013-11-26 02:57:00,29.3,22.4,30.23,NW,309,6.0,7.0,75,0.00,,,0.00,WeatherCatV1.21B27,2013-11-26 08:57:00,
2013-11-26 03:02:00,29.3,22.4,30.22,NW,315,3.0,10.0,75,0.00,,,0.00,WeatherCatV1.21B27,2013-11-26 09:02:00,
2013-11-26 03:07:00,29.3,22.4,30.23,NNW,344,5.0,6.0,75,0.00,,,0.00,WeatherCatV1.21B27,2013-11-26 09:07:00,
2013-11-26 03:12:00,29.3,22.4,30.23,NNW,345,7.0,9.0,75,0.00,,,0.00,WeatherCatV1.21B27,2013-11-26 09:12:00,
2013-11-26 03:17:00,29.3,22.4,30.23,NNE,14,9.0,10.0,75,0.00,,,0.00,WeatherCatV1.21B27,2013-11-26 09:17:00,
2013-11-26 03:22:00,29.2,22.3,30.23,NW,316,6.0,12.0,75,0.00,,,0.00,WeatherCatV1.21B27,2013-11-26 09:22:00,
2013-11-26 03:27:00,29.2,22.3,30.23,NNW,332,8.0,10.0,75,0.00,,,0.00,WeatherCatV1.21B27,2013-11-26 09:27:00,
2013-11-26 03:32:00,29.2,22.3,30.23,NW,320,5.0,9.0,75,0.00,,,0.00,WeatherCatV1.21B27,2013-11-26 09:32:00,
2013-11-26 03:37:00,29.2,22.3,30.23,WNW,299,10.0,12.0,75,0.00,,,0.00,WeatherCatV1.21B27,2013-11-26 09:37:00,
2013-11-26 03:42:00,29.2,22.3,30.23,NW,323,5.0,8.0,75,0.00,,,0.00,WeatherCatV1.21B27,2013-11-26 09:42:00,
2013-11-26 03:47:00,29.2,22.3,30.23,NNW,338,4.0,11.0,75,0.00,,,0.00,WeatherCatV1.21B27,2013-11-26 09:47:00,
2013-11-26 03:52:00,29.1,22.2,30.23,NNW,331,2.0,7.0,75,0.00,,,0.00,WeatherCatV1.21B27,2013-11-26 09:52:00,
2013-11-26 03:57:00,29.1,22.5,30.23,NW,312,3.0,9.0,76,0.00,,,0.00,WeatherCatV1.21B27,2013-11-26 09:57:00,
2013-11-26 04:02:00,29.1,22.5,30.24,North,0,5.0,7.0,76,0.00,,,0.00,WeatherCatV1.21B27,2013-11-26 10:02:00,
2013-11-26 04:07:00,29.0,22.1,30.24,NNW,343,6.0,12.0,75,0.00,,,0.00,WeatherCatV1.21B27,2013-11-26 10:07:00,
2013-11-26 04:12:00,28.9,21.4,30.24,NW,315,6.0,9.0,73,0.00,,,0.00,WeatherCatV1.21B27,2013-11-26 10:12:00,
2013-11-26 04:17:00,28.7,21.2,30.24,North,0,6.0,12.0,73,0.00,,,0.00,WeatherCatV1.21B27,2013-11-26 10:17:00,
2013-11-26 04:22:00,28.6,21.1,30.25,WNW,286,4.0,8.0,73,0.00,,,0.00,WeatherCatV1.21B27,2013-11-26 10:22:00,
2013-11-26 04:27:00,28.5,21.3,30.25,WNW,301,4.0,9.0,74,0.00,,,0.00,WeatherCatV1.21B27,2013-11-26 10:27:00,
2013-11-26 04:32:00,28.4,21.2,30.25,NW,322,5.0,8.0,74,0.00,,,0.00,WeatherCatV1.21B27,2013-11-26 10:32:00,
2013-11-26 04:37:00,28.3,21.1,30.25,WNW,301,3.0,8.0,74,0.00,,,0.00,WeatherCatV1.21B27,2013-11-26 10:37:00,
2013-11-26 04:42:00,28.1,20.9,30.25,North,353,2.0,12.0,74,0.00,,,0.00,WeatherCatV1.21B27,2013-11-26 10:42:00,
2013-11-26 04:47:00,28.0,20.8,30.25,NNW,335,2.0,7.0,74,0.00,,,0.00,WeatherCatV1.21B27,2013-11-26 10:47:00,
2013-11-26 04:52:00,27.9,21.0,30.26,WNW,282,2.0,9.0,75,0.00,,,0.00,WeatherCatV1.21B27,2013-11-26 10:52:00,
2013-11-26 04:57:00,27.7,20.8,30.26,NNE,16,4.0,7.0,75,0.00,,,0.00,WeatherCatV1.21B27,2013-11-26 10:57:00,
2013-11-26 05:02:00,27.5,20.0,30.26,NW,308,1.0,10.0,73,0.00,,,0.00,WeatherCatV1.21B27,2013-11-26 11:02:00,
2013-11-26 05:07:00,27.3,19.8,30.27,WNW,288,5.0,9.0,73,0.00,,,0.00,WeatherCatV1.21B27,2013-11-26 11:07:00,
2013-11-26 05:12:00,27.0,19.8,30.27,North,0,4.0,9.0,74,0.00,,,0.00,WeatherCatV1.21B27,2013-11-26 11:12:00,
2013-11-26 05:17:00,26.7,19.5,30.27,WNW,293,4.0,8.0,74,0.00,,,0.00,WeatherCatV1.21B27,2013-11-26 11:17:00,
2013-11-26 05:22:00,26.3,19.2,30.28,WNW,297,6.0,10.0,74,0.00,,,0.00,WeatherCatV1.21B27,2013-11-26 11:22:00,
2013-11-26 05:27:00,25.8,18.7,30.28,NW,320,6.0,9.0,74,0.00,,,0.00,WeatherCatV1.21B27,2013-11-26 11:27:00,
2013-11-26 05:32:00,25.0,17.9,30.29,NNW,343,6.0,11.0,74,0.00,,,0.00,WeatherCatV1.21B27,2013-11-26 11:32:00,
2013-11-26 05:37:00,24.3,16.9,30.28,NW,304,5.0,10.0,73,0.00,,,0.00,WeatherCatV1.21B27,2013-11-26 11:37:00,
2013-11-26 05:42:00,23.7,16.3,30.30,North,10,7.0,11.0,73,0.00,,,0.00,WeatherCatV1.21B27,2013-11-26 11:42:00,
2013-11-26 05:47:00,23.3,16.3,30.30,NW,322,6.0,9.0,74,0.00,,,0.00,WeatherCatV1.21B27,2013-11-26 11:47:00,
2013-11-26 05:52:00,22.9,15.9,30.30,WNW,302,8.0,8.0,74,0.00,,,0.00,WeatherCatV1.21B27,2013-11-26 11:52:00,
2013-11-26 05:57:00,22.6,15.9,30.30,WNW,299,3.0,5.0,75,0.00,,,0.00,WeatherCatV1.21B27,2013-11-26 11:57:00,
2013-11-26 06:02:00,22.3,15.6,30.31,NW,316,3.0,8.0,75,0.00,,,0.00,WeatherCatV1.21B27,2013-11-26 12:02:00,
2013-11-26 06:07:00,22.0,15.3,30.31,WNW,291,7.0,7.0,75,0.00,,,0.00,WeatherCatV1.21B27,2013-11-26 12:07:00,
2013-11-26 06:12:00,21.7,15.0,30.31,NW,308,5.0,5.0,75,0.00,,,0.00,WeatherCatV1.21B27,2013-11-26 12:12:00,
2013-11-26 06:17:00,21.5,14.8,30.31,WNW,299,3.0,5.0,75,0.00,,,0.00,WeatherCatV1.21B27,2013-11-26 12:17:00,
2013-11-26 06:22:00,21.3,14.9,30.31,NW,307,1.0,6.0,76,0.00,,,0.00,WeatherCatV1.21B27,2013-11-26 12:22:00,
2013-11-26 06:27:00,21.2,14.8,30.31,NNW,334,2.0,5.0,76,0.00,,,0.00,WeatherCatV1.21B27,2013-11-26 12:27:00,
2013-11-26 06:32:00,21.0,14.9,30.32,NNW,332,2.0,3.0,77,0.00,,,0.00,WeatherCatV1.21B27,2013-11-26 12:32:00,
2013-11-26 06:37:00,20.8,14.8,30.32,NW,314,3.0,4.0,77,0.00,,,0.00,WeatherCatV1.21B27,2013-11-26 12:37:00,
2013-11-26 06:42:00,20.8,14.8,30.32,NW,314,2.0,4.0,77,0.00,,,0.00,WeatherCatV1.21B27,2013-11-26 12:42:00,
2013-11-26 06:47:00,20.8,14.8,30.32,NW,307,3.0,7.0,77,0.00,,,0.00,WeatherCatV1.21B27,2013-11-26 12:47:00,
2013-11-26 06:52:00,20.9,14.9,30.32,WNW,301,2.0,6.0,77,0.00,,,0.00,WeatherCatV1.21B27,2013-11-26 12:52:00,
2013-11-26 06:57:00,21.1,15.0,30.32,NW,314,3.0,5.0,77,0.00,,,0.00,WeatherCatV1.21B27,2013-11-26 12:57:00,
2013-11-26 07:03:00,20.9,14.9,30.33,NW,321,3.0,8.0,77,0.00,,,0.00,WeatherCatV1.21B27,2013-11-26 13:03:00,
2013-11-26 07:08:00,20.6,13.6,30.33,WNW,297,6.0,11.0,74,0.00,,,0.00,WeatherCatV1.21B27,2013-11-26 13:08:00,
2013-11-26 07:13:00,20.2,13.3,30.33,WNW,299,9.0,10.0,74,0.00,,,0.00,WeatherCatV1.21B27,2013-11-26 13:13:00,
2013-11-26 07:18:00,19.7,12.8,30.34,NW,309,5.0,10.0,74,0.00,,,0.00,WeatherCatV1.21B27,2013-11-26 13:18:00,
2013-11-26 07:23:00,19.3,12.4,30.34,WNW,302,6.0,10.0,74,0.00,,,0.00,WeatherCatV1.21B27,2013-11-26 13:23:00,
2013-11-26 07:28:00,18.9,12.0,30.35,NW,305,4.0,12.0,74,0.00,,,0.00,WeatherCatV1.21B27,2013-11-26 13:28:00,
2013-11-26 07:33:00,18.6,11.7,30.36,NW,307,1.0,7.0,74,0.00,,,0.00,WeatherCatV1.21B27,2013-11-26 13:33:00,
2013-11-26 07:38:00,18.3,11.7,30.36,NW,304,6.0,10.0,75,0.00,,,0.00,WeatherCatV1.21B27,2013-11-26 13:38:00,
2013-11-26 07:43:00,18.1,11.5,30.37,WNW,302,6.0,7.0,75,0.00,,,0.00,WeatherCatV1.21B27,2013-11-26 13:43:00,
2013-11-26 07:48:00,17.9,11.3,30.37,North,0,4.0,9.0,75,0.00,,,0.00,WeatherCatV1.21B27,2013-11-26 13:48:00,
2013-11-26 07:53:00,17.7,11.1,30.37,NNW,348,7.0,8.0,75,0.00,,,0.00,WeatherCatV1.21B27,2013-11-26 13:53:00,
2013-11-26 07:58:00,17.5,10.9,30.37,WNW,291,6.0,7.0,75,0.00,,,0.00,WeatherCatV1.21B27,2013-11-26 13:58:00,
2013-11-26 08:03:00,17.5,10.9,30.38,WNW,301,5.0,7.0,75,0.00,,,0.00,WeatherCatV1.21B27,2013-11-26 14:03:00,
2013-11-26 08:08:00,17.5,10.9,30.38,NW,309,2.0,9.0,75,0.00,,,0.00,WeatherCatV1.21B27,2013-11-26 14:08:00,
2013-11-26 08:13:00,17.5,10.9,30.38,NW,319,5.0,14.0,75,0.00,,,0.00,WeatherCatV1.21B27,2013-11-26 14:13:00,
2013-11-26 08:18:00,17.5,10.9,30.39,NW,304,4.0,9.0,75,0.00,,,0.00,WeatherCatV1.21B27,2013-11-26 14:18:00,
2013-11-26 08:23:00,17.5,10.6,30.39,NW,323,2.0,11.0,74,0.00,,,0.00,WeatherCatV1.21B27,2013-11-26 14:23:00,
2013-11-26 08:28:00,17.6,10.8,30.39,West,280,3.0,10.0,74,0.00,,,0.00,WeatherCatV1.21B27,2013-11-26 14:28:00,
2013-11-26 08:33:00,17.8,10.9,30.40,North,351,4.0,8.0,74,0.00,,,0.00,WeatherCatV1.21B27,2013-11-26 14:33:00,
2013-11-26 08:38:00,17.9,10.7,30.40,NW,312,2.0,7.0,73,0.00,,,0.00,WeatherCatV1.21B27,2013-11-26 14:38:00,
2013-11-26 08:43:00,18.0,10.5,30.40,NW,314,7.0,10.0,72,0.00,,,0.00,WeatherCatV1.21B27,2013-11-26 14:43:00,
2013-11-26 08:48:00,18.2,10.4,30.40,NW,320,11.0,11.0,71,0.00,,,0.00,WeatherCatV1.21B27,2013-11-26 14:48:00,
2013-11-26 08:53:00,18.2,10.4,30.41,NW,326,7.0,9.0,71,0.00,,,0.00,WeatherCatV1.21B27,2013-11-26 14:53:00,
2013-11-26 08:58:00,18.4,10.6,30.41,NW,309,9.0,13.0,71,0.00,,,0.00,WeatherCatV1.21B27,2013-11-26 14:58:00,
2013-11-26 09:03:00,18.4,10.3,30.41,NW,307,8.0,16.0,70,0.00,,,0.00,WeatherCatV1.21B27,2013-11-26 15:03:00,
2013-11-26 09:08:00,18.5,10.7,30.41,NNW,338,8.0,9.0,71,0.00,,,0.00,WeatherCatV1.21B27,2013-11-26 15:08:00,
2013-11-26 09:13:00,18.6,10.5,30.41,WNW,283,5.0,9.0,70,0.00,,,0.00,WeatherCatV1.21B27,2013-11-26 15:13:00,
2013-11-26 09:18:00,18.6,10.1,30.42,NW,315,9.0,16.0,69,0.00,,,0.00,WeatherCatV1.21B27,2013-11-26 15:18:00,
2013-11-26 09:23:00,18.9,10.8,30.42,North,353,5.0,9.0,70,0.00,,,0.00,WeatherCatV1.21B27,2013-11-26 15:23:00,
2013-11-26 09:28:00,19.1,10.6,30.42,NNW,335,7.0,11.0,69,0.00,,,0.00,WeatherCatV1.21B27,2013-11-26 15:28:00,
2013-11-26 09:33:00,19.3,10.8,30.42,NNW,344,7.0,12.0,69,0.00,,,0.00,WeatherCatV1.21B27,2013-11-26 15:33:00,
2013-11-26 09:38:00,19.5,10.7,30.42,NW,326,8.0,12.0,68,0.00,,,0.00,WeatherCatV1.21B27,2013-11-26 15:38:00,
2013-11-26 09:43:00,19.6,10.4,30.42,NW,312,14.0,14.0,67,0.00,,,0.00,WeatherCatV1.21B27,2013-11-26 15:43:00,
2013-11-26 09:48:00,20.0,10.8,30.42,NW,311,6.0,11.0,67,0.00,,,0.00,WeatherCatV1.21B27,2013-11-26 15:48:00,
2013-11-26 09:53:00,20.3,10.8,30.42,NW,319,6.0,9.0,66,0.00,,,0.00,WeatherCatV1.21B27,2013-11-26 15:53:00,
2013-11-26 09:58:00,20.6,10.7,30.43,NNE,16,3.0,11.0,65,0.00,,,0.00,WeatherCatV1.21B27,2013-11-26 15:58:00,
2013-11-26 10:03:00,20.5,9.9,30.43,NNW,334,9.0,13.0,63,0.00,,,0.00,WeatherCatV1.21B27,2013-11-26 16:03:00,
2013-11-26 10:08:00,20.7,10.5,30.43,NNW,341,7.0,12.0,64,0.00,,,0.00,WeatherCatV1.21B27,2013-11-26 16:08:00,
2013-11-26 10:13:00,20.8,10.6,30.43,NNW,334,4.0,10.0,64,0.00,,,0.00,WeatherCatV1.21B27,2013-11-26 16:13:00,
2013-11-26 10:18:00,21.0,10.8,30.43,WNW,282,5.0,8.0,64,0.00,,,0.00,WeatherCatV1.21B27,2013-11-26 16:18:00,
2013-11-26 10:23:00,21.3,10.3,30.44,NNW,328,4.0,10.0,62,0.00,,,0.00,WeatherCatV1.21B27,2013-11-26 16:23:00,
2013-11-26 10:28:00,21.3,10.7,30.43,NW,308,8.0,13.0,63,0.00,,,0.00,WeatherCatV1.21B27,2013-11-26 16:28:00,
2013-11-26 10:33:00,21.3,10.0,30.44,NW,308,7.0,9.0,61,0.00,,,0.00,WeatherCatV1.21B27,2013-11-26 16:33:00,
2013-11-26 10:38:00,21.3,10.3,30.44,NW,326,5.0,8.0,62,0.00,,,0.00,WeatherCatV1.21B27,2013-11-26 16:38:00,
2013-11-26 10:43:00,21.6,10.3,30.44,NNW,341,3.0,16.0,61,0.00,,,0.00,WeatherCatV1.21B27,2013-11-26 16:43:00,
2013-11-26 10:48:00,21.8,9.7,30.44,WNW,291,8.0,8.0,59,0.00,,,0.00,WeatherCatV1.21B27,2013-11-26 16:48:00,
2013-11-26 10:53:00,22.2,9.7,30.44,WNW,285,4.0,12.0,58,0.00,,,0.00,WeatherCatV1.21B27,2013-11-26 16:53:00,
2013-11-26 10:58:00,22.0,9.1,30.44,NW,311,5.0,12.0,57,0.00,,,0.00,WeatherCatV1.21B27,2013-11-26 16:58:00,
2013-11-26 11:03:00,22.2,9.3,30.44,North,0,3.0,8.0,57,0.00,,,0.00,WeatherCatV1.21B27,2013-11-26 17:03:00,
2013-11-26 11:08:00,22.4,9.9,30.44,WNW,297,3.0,10.0,58,0.00,,,0.00,WeatherCatV1.21B27,2013-11-26 17:08:00,
2013-11-26 11:13:00,22.6,9.3,30.45,NE,39,9.0,9.0,56,0.00,,,0.00,WeatherCatV1.21B27,2013-11-26 17:13:00,
2013-11-26 11:18:00,22.4,8.7,30.45,WNW,296,4.0,11.0,55,0.00,,,0.00,WeatherCatV1.21B27,2013-11-26 17:18:00,
2013-11-26 11:23:00,22.5,8.8,30.44,West,270,6.0,10.0,55,0.00,,,0.00,WeatherCatV1.21B27,2013-11-26 17:23:00,
2013-11-26 11:28:00,22.6,8.9,30.44,WNW,291,6.0,11.0,55,0.00,,,0.00,WeatherCatV1.21B27,2013-11-26 17:28:00,
2013-11-26 11:33:00,22.7,9.8,30.44,WNW,297,6.0,7.0,57,0.00,,,0.00,WeatherCatV1.21B27,2013-11-26 17:33:00,
2013-11-26 11:38:00,23.3,9.6,30.44,WNW,303,7.0,10.0,55,0.00,,,0.00,WeatherCatV1.21B27,2013-11-26 17:38:00,
2013-11-26 11:43:00,23.1,9.0,30.44,NW,309,8.0,11.0,54,0.00,,,0.00,WeatherCatV1.21B27,2013-11-26 17:43:00,
2013-11-26 11:48:00,22.9,8.4,30.44,NNW,330,5.0,13.0,53,0.00,,,0.00,WeatherCatV1.21B27,2013-11-26 17:48:00,
2013-11-26 11:53:00,22.7,7.8,30.44,NW,309,5.0,11.0,52,0.00,,,0.00,WeatherCatV1.21B27,2013-11-26 17:53:00,
2013-11-26 11:58:00,23.0,8.4,30.44,NW,315,7.0,9.0,53,0.00,,,0.00,WeatherCatV1.21B27,2013-11-26 17:58:00,
2013-11-26 12:03:00,22.7,7.8,30.44,NNW,339,8.0,13.0,52,0.00,,,0.00,WeatherCatV1.21B27,2013-11-26 18:03:00,
2013-11-26 12:08:00,22.9,8.4,30.44,WNW,295,9.0,13.0,53,0.00,,,0.00,WeatherCatV1.21B27,2013-11-26 18:08:00,
2013-11-26 12:13:00,22.9,7.9,30.44,NW,324,8.0,10.0,52,0.00,,,0.00,WeatherCatV1.21B27,2013-11-26 18:13:00,
2013-11-26 12:18:00,22.9,7.5,30.44,North,355,9.0,15.0,51,0.00,,,0.00,WeatherCatV1.21B27,2013-11-26 18:18:00,
2013-11-26 12:23:00,23.0,7.6,30.43,WNW,301,6.0,14.0,51,0.00,,,0.00,WeatherCatV1.21B27,2013-11-26 18:23:00,
2013-11-26 12:28:00,23.3,7.9,30.44,NNE,14,8.0,14.0,51,0.00,,,0.00,WeatherCatV1.21B27,2013-11-26 18:28:00,
2013-11-26 12:33:00,23.2,7.8,30.43,NW,318,10.0,10.0,51,0.00,,,0.00,WeatherCatV1.21B27,2013-11-26 18:33:00,
2013-11-26 12:38:00,23.2,7.8,30.43,NW,308,4.0,12.0,51,0.00,,,0.00,WeatherCatV1.21B27,2013-11-26 18:38:00,
2013-11-26 12:43:00,23.7,8.7,30.44,NNW,345,7.0,9.0,52,0.00,,,0.00,WeatherCatV1.21B27,2013-11-26 18:43:00,
2013-11-26 12:48:00,23.5,8.1,30.43,WNW,300,11.0,12.0,51,0.00,,,0.00,WeatherCatV1.21B27,2013-11-26 18:48:00,
2013-11-26 12:53:00,23.8,8.3,30.43,NW,311,7.0,9.0,51,0.00,,,0.00,WeatherCatV1.21B27,2013-11-26 18:53:00,
2013-11-26 12:58:00,23.5,7.6,30.43,NW,307,7.0,14.0,50,0.00,,,0.00,WeatherCatV1.21B27,2013-11-26 18:58:00,
2013-11-26 13:03:00,23.3,7.4,30.43,NW,311,7.0,15.0,50,0.00,,,0.00,WeatherCatV1.21B27,2013-11-26 19:03:00,
2013-11-26 13:08:00,23.5,8.1,30.42,North,10,7.0,11.0,51,0.00,,,0.00,WeatherCatV1.21B27,2013-11-26 19:08:00,
2013-11-26 13:13:00,23.7,8.2,30.42,WNW,293,3.0,4.0,51,0.00,,,0.00,WeatherCatV1.21B27,2013-11-26 19:13:00,
2013-11-26 13:18:00,24.1,8.2,30.42,WSW,244,4.0,8.0,50,0.00,,,0.00,WeatherCatV1.21B27,2013-11-26 19:18:00,
2013-11-26 13:23:00,24.0,8.1,30.42,NW,324,7.0,10.0,50,0.00,,,0.00,WeatherCatV1.21B27,2013-11-26 19:23:00,
2013-11-26 13:28:00,24.0,8.1,30.42,WNW,290,6.0,11.0,50,0.00,,,0.00,WeatherCatV1.21B27,2013-11-26 19:28:00,
2013-11-26 13:33:00,24.0,7.6,30.42,NW,318,6.0,12.0,49,0.00,,,0.00,WeatherCatV1.21B27,2013-11-26 19:33:00,
2013-11-26 13:38:00,24.0,8.1,30.42,NNW,339,9.0,13.0,50,0.00,,,0.00,WeatherCatV1.21B27,2013-11-26 19:38:00,
2013-11-26 13:43:00,24.0,7.6,30.42,NW,318,6.0,12.0,49,0.00,,,0.00,WeatherCatV1.21B27,2013-11-26 19:43:00,
2013-11-26 13:48:00,24.2,7.8,30.42,NW,317,7.0,9.0,49,0.00,,,0.00,WeatherCatV1.21B27,2013-11-26 19:48:00,
2013-11-26 13:53:00,24.5,7.7,30.42,NW,317,7.0,12.0,48,0.00,,,0.00,WeatherCatV1.21B27,2013-11-26 19:53:00,
2013-11-26 13:58:00,24.4,7.6,30.42,NNE,19,11.0,14.0,48,0.00,,,0.00,WeatherCatV1.21B27,2013-11-26 19:58:00,
2013-11-26 14:03:00,24.3,7.5,30.42,West,264,6.0,14.0,48,0.00,,,0.00,WeatherCatV1.21B27,2013-11-26 20:03:00,
2013-11-26 14:08:00,24.5,7.7,30.42,NNW,335,6.0,11.0,48,0.00,,,0.00,WeatherCatV1.21B27,2013-11-26 20:08:00,
2013-11-26 14:13:00,24.7,7.8,30.42,North,354,7.0,13.0,48,0.00,,,0.00,WeatherCatV1.21B27,2013-11-26 20:13:00,
2013-11-26 14:18:00,24.7,7.8,30.42,North,355,4.0,13.0,48,0.00,,,0.00,WeatherCatV1.21B27,2013-11-26 20:18:00,
2013-11-26 14:23:00,24.8,7.9,30.42,West,267,10.0,12.0,48,0.00,,,0.00,WeatherCatV1.21B27,2013-11-26 20:23:00,
2013-11-26 14:28:00,24.6,8.2,30.42,West,272,5.0,10.0,49,0.00,,,0.00,WeatherCatV1.21B27,2013-11-26 20:28:00,
2013-11-26 14:33:00,24.9,8.5,30.42,WNW,289,4.0,8.0,49,0.00,,,0.00,WeatherCatV1.21B27,2013-11-26 20:33:00,
2013-11-26 14:38:00,25.0,8.6,30.41,NW,312,6.0,9.0,49,0.00,,,0.00,WeatherCatV1.21B27,2013-11-26 20:38:00,
2013-11-26 14:43:00,25.0,8.6,30.41,NW,309,4.0,10.0,49,0.00,,,0.00,WeatherCatV1.21B27,2013-11-26 20:43:00,
2013-11-26 14:48:00,24.8,8.4,30.41,NW,309,9.0,15.0,49,0.00,,,0.00,WeatherCatV1.21B27,2013-11-26 20:48:00,
2013-11-26 14:53:00,24.7,8.3,30.41,West,264,8.0,11.0,49,0.00,,,0.00,WeatherCatV1.21B27,2013-11-26 20:53:00,
2013-11-26 14:58:00,24.7,8.3,30.41,NW,316,5.0,10.0,49,0.00,,,0.00,WeatherCatV1.21B27,2013-11-26 20:58:00,
2013-11-26 15:03:00,24.7,8.3,30.41,NW,314,6.0,11.0,49,0.00,,,0.00,WeatherCatV1.21B27,2013-11-26 21:03:00,
2013-11-26 15:08:00,24.7,8.3,30.41,NW,309,3.0,8.0,49,0.00,,,0.00,WeatherCatV1.21B27,2013-11-26 21:08:00,
2013-11-26 15:13:00,24.8,8.4,30.41,WNW,295,7.0,8.0,49,0.00,,,0.00,WeatherCatV1.21B27,2013-11-26 21:13:00,
2013-11-26 15:18:00,24.7,8.3,30.41,WNW,288,3.0,11.0,49,0.00,,,0.00,WeatherCatV1.21B27,2013-11-26 21:18:00,
2013-11-26 15:23:00,24.6,8.2,30.42,WNW,298,3.0,12.0,49,0.00,,,0.00,WeatherCatV1.21B27,2013-11-26 21:23:00,
2013-11-26 15:28:00,24.6,8.2,30.41,NW,316,9.0,13.0,49,0.00,,,0.00,WeatherCatV1.21B27,2013-11-26 21:28:00,
2013-11-26 15:33:00,24.5,8.1,30.42,WNW,292,8.0,12.0,49,0.00,,,0.00,WeatherCatV1.21B27,2013-11-26 21:33:00,
2013-11-26 15:38:00,24.4,8.0,30.41,West,279,4.0,7.0,49,0.00,,,0.00,WeatherCatV1.21B27,2013-11-26 21:38:00,
2013-11-26 15:43:00,24.4,7.6,30.41,NW,316,4.0,15.0,48,0.00,,,0.00,WeatherCatV1.21B27,2013-11-26 21:43:00,
2013-11-26 15:48:00,24.3,7.9,30.41,NW,316,6.0,7.0,49,0.00,,,0.00,WeatherCatV1.21B27,2013-11-26 21:48:00,
2013-11-26 15:53:00,24.2,8.3,30.41,NW,317,12.0,12.0,50,0.00,,,0.00,WeatherCatV1.21B27,2013-11-26 21:53:00,
2013-11-26 15:58:00,24.1,8.2,30.42,WNW,294,4.0,8.0,50,0.00,,,0.00,WeatherCatV1.21B27,2013-11-26 21:58:00,
2013-11-26 16:03:00,24.1,8.2,30.42,NW,325,4.0,9.0,50,0.00,,,0.00,WeatherCatV1.21B27,2013-11-26 22:03:00,
2013-11-26 16:08:00,24.0,8.1,30.42,NW,320,8.0,10.0,50,0.00,,,0.00,WeatherCatV1.21B27,2013-11-26 22:08:00,
2013-11-26 16:13:00,24.0,8.1,30.42,WNW,290,2.0,8.0,50,0.00,,,0.00,WeatherCatV1.21B27,2013-11-26 22:13:00,
2013-11-26 16:18:00,23.9,8.0,30.42,WNW,290,3.0,7.0,50,0.00,,,0.00,WeatherCatV1.21B27,2013-11-26 22:18:00,
2013-11-26 16:23:00,23.8,8.3,30.42,NW,315,4.0,9.0,51,0.00,,,0.00,WeatherCatV1.21B27,2013-11-26 22:23:00,
2013-11-26 16:28:00,23.7,8.2,30.42,WNW,295,4.0,12.0,51,0.00,,,0.00,WeatherCatV1.21B27,2013-11-26 22:28:00,
2013-11-26 16:33:00,23.6,8.2,30.42,WNW,285,3.0,7.0,51,0.00,,,0.00,WeatherCatV1.21B27,2013-11-26 22:33:00,
2013-11-26 16:38:00,23.5,8.1,30.43,NNW,331,7.0,9.0,51,0.00,,,0.00,WeatherCatV1.21B27,2013-11-26 22:38:00,
2013-11-26 16:43:00,23.4,8.0,30.42,WNW,294,3.0,7.0,51,0.00,,,0.00,WeatherCatV1.21B27,2013-11-26 22:43:00,
2013-11-26 16:48:00,23.3,7.9,30.43,NW,307,3.0,10.0,51,0.00,,,0.00,WeatherCatV1.21B27,2013-11-26 22:48:00,
2013-11-26 16:53:00,23.2,8.2,30.43,NNE,18,6.0,8.0,52,0.00,,,0.00,WeatherCatV1.21B27,2013-11-26 22:53:00,
2013-11-26 16:58:00,23.1,8.1,30.43,WNW,291,5.0,9.0,52,0.00,,,0.00,WeatherCatV1.21B27,2013-11-26 22:58:00,
2013-11-26 17:03:00,22.9,7.5,30.43,WNW,294,2.0,6.0,51,0.00,,,0.00,WeatherCatV1.21B27,2013-11-26 23:03:00,
2013-11-26 17:08:00,22.7,7.3,30.43,North,354,8.0,8.0,51,0.00,,,0.00,WeatherCatV1.21B27,2013-11-26 23:08:00,
2013-11-26 17:13:00,22.6,7.7,30.43,NW,312,3.0,9.0,52,0.00,,,0.00,WeatherCatV1.21B27,2013-11-26 23:13:00,
2013-11-26 17:18:00,22.5,7.6,30.43,NNW,338,2.0,7.0,52,0.00,,,0.00,WeatherCatV1.21B27,2013-11-26 23:18:00,
2013-11-26 17:23:00,22.3,7.4,30.43,WNW,282,3.0,5.0,52,0.00,,,0.00,WeatherCatV1.21B27,2013-11-26 23:23:00,
2013-11-26 17:28:00,22.1,7.6,30.43,West,279,1.0,8.0,53,0.00,,,0.00,WeatherCatV1.21B27,2013-11-26 23:28:00,
2013-11-26 17:33:00,21.8,7.3,30.43,West,278,2.0,6.0,53,0.00,,,0.00,WeatherCatV1.21B27,2013-11-26 23:33:00,
2013-11-26 17:38:00,21.7,7.7,30.44,NNW,336,4.0,4.0,54,0.00,,,0.00,WeatherCatV1.21B27,2013-11-26 23:38:00,
2013-11-26 17:43:00,21.5,7.5,30.44,NW,318,2.0,5.0,54,0.00,,,0.00,WeatherCatV1.21B27,2013-11-26 23:43:00,
2013-11-26 17:48:00,21.3,7.3,30.44,NW,311,5.0,6.0,54,0.00,,,0.00,WeatherCatV1.21B27,2013-11-26 23:48:00,
2013-11-26 17:53:00,21.2,7.2,30.43,West,277,3.0,5.0,54,0.00,,,0.00,WeatherCatV1.21B27,2013-11-26 23:53:00,
2013-11-26 17:58:00,21.0,7.0,30.43,West,274,3.0,6.0,54,0.00,,,0.00,WeatherCatV1.21B27,2013-11-26 23:58:00,
2013-11-26 18:03:00,20.8,7.2,30.43,WNW,301,8.0,8.0,55,0.00,,,0.00,WeatherCatV1.21B27,2013-11-27 00:03:00,
2013-11-26 18:08:00,20.6,7.0,30.43,NW,311,4.0,7.0,55,0.00,,,0.00,WeatherCatV1.21B27,2013-11-27 00:08:00,
2013-11-26 18:13:00,20.4,7.2,30.43,WNW,303,4.0,4.0,56,0.00,,,0.00,WeatherCatV1.21B27,2013-11-27 00:13:00,
2013-11-26 18:18:00,20.2,7.1,30.43,NW,315,2.0,4.0,56,0.00,,,0.00,WeatherCatV1.21B27,2013-11-27 00:18:00,
2013-11-26 18:23:00,20.0,7.2,30.43,NW,306,2.0,7.0,57,0.00,,,0.00,WeatherCatV1.21B27,2013-11-27 00:23:00,
2013-11-26 18:28:00,19.9,6.8,30.44,WNW,300,5.0,7.0,56,0.00,,,0.00,WeatherCatV1.21B27,2013-11-27 00:28:00,
2013-11-26 18:33:00,19.9,6.8,30.44,WNW,295,6.0,8.0,56,0.00,,,0.00,WeatherCatV1.21B27,2013-11-27 00:33:00,
2013-11-26 18:38:00,19.9,6.8,30.44,North,10,4.0,4.0,56,0.00,,,0.00,WeatherCatV1.21B27,2013-11-27 00:38:00,
2013-11-26 18:43:00,19.7,6.6,30.44,NW,322,5.0,6.0,56,0.00,,,0.00,WeatherCatV1.21B27,2013-11-27 00:43:00,
2013-11-26 18:48:00,19.6,6.5,30.44,WNW,297,3.0,7.0,56,0.00,,,0.00,WeatherCatV1.21B27,2013-11-27 00:48:00,
2013-11-26 18:53:00,19.5,6.8,30.44,WNW,299,1.0,6.0,57,0.00,,,0.00,WeatherCatV1.21B27,2013-11-27 00:53:00,
2013-11-26 18:58:00,19.3,6.6,30.44,WNW,301,3.0,5.0,57,0.00,,,0.00,WeatherCatV1.21B27,2013-11-27 00:58:00,
2013-11-26 19:03:00,19.2,6.9,30.44,NW,306,3.0,3.0,58,0.00,,,0.00,WeatherCatV1.21B27,2013-11-27 01:03:00,
2013-11-26 19:08:00,19.1,6.8,30.44,NW,308,3.0,5.0,58,0.00,,,0.00,WeatherCatV1.21B27,2013-11-27 01:08:00,
2013-11-26 19:13:00,18.9,6.6,30.44,WNW,283,0.0,5.0,58,0.00,,,0.00,WeatherCatV1.21B27,2013-11-27 01:13:00,
2013-11-26 19:18:00,18.6,6.7,30.44,WNW,284,2.0,3.0,59,0.00,,,0.00,WeatherCatV1.21B27,2013-11-27 01:18:00,
2013-11-26 19:23:00,18.4,6.5,30.44,WNW,284,1.0,3.0,59,0.00,,,0.00,WeatherCatV1.21B27,2013-11-27 01:23:00,
2013-11-26 19:28:00,18.3,6.8,30.44,WNW,285,1.0,4.0,60,0.00,,,0.00,WeatherCatV1.21B27,2013-11-27 01:28:00,
2013-11-26 19:33:00,18.1,6.6,30.44,WNW,286,1.0,5.0,60,0.00,,,0.00,WeatherCatV1.21B27,2013-11-27 01:33:00,
2013-11-26 19:38:00,18.0,6.5,30.44,WNW,286,1.0,4.0,60,0.00,,,0.00,WeatherCatV1.21B27,2013-11-27 01:38:00,
2013-11-26 19:43:00,17.9,6.4,30.44,North,350,4.0,6.0,60,0.00,,,0.00,WeatherCatV1.21B27,2013-11-27 01:43:00,
2013-11-26 19:48:00,17.9,6.8,30.44,NW,309,1.0,4.0,61,0.00,,,0.00,WeatherCatV1.21B27,2013-11-27 01:48:00,
2013-11-26 19:53:00,17.8,6.7,30.45,WNW,290,3.0,6.0,61,0.00,,,0.00,WeatherCatV1.21B27,2013-11-27 01:53:00,
2013-11-26 19:58:00,17.7,6.6,30.45,WNW,299,3.0,4.0,61,0.00,,,0.00,WeatherCatV1.21B27,2013-11-27 01:58:00,
2013-11-26 20:03:00,17.7,6.6,30.44,WNW,301,2.0,3.0,61,0.00,,,0.00,WeatherCatV1.21B27,2013-11-27 02:03:00,
2013-11-26 20:08:00,17.7,6.6,30.45,WNW,287,2.0,4.0,61,0.00,,,0.00,WeatherCatV1.21B27,2013-11-27 02:08:00,
2013-11-26 20:13:00,17.6,6.5,30.45,NW,307,2.0,2.0,61,0.00,,,0.00,WeatherCatV1.21B27,2013-11-27 02:13:00,
2013-11-26 20:18:00,17.5,6.7,30.45,NW,306,3.0,4.0,62,0.00,,,0.00,WeatherCatV1.21B27,2013-11-27 02:18:00,
2013-11-26 20:23:00,17.3,6.5,30.45,WNW,299,0.0,4.0,62,0.00,,,0.00,WeatherCatV1.21B27,2013-11-27 02:23:00,
2013-11-26 20:28:00,17.2,6.8,30.45,NW,304,3.0,4.0,63,0.00,,,0.00,WeatherCatV1.21B27,2013-11-27 02:28:00,
2013-11-26 20:33:00,17.0,6.6,30.45,NW,304,1.0,2.0,63,0.00,,,0.00,WeatherCatV1.21B27,2013-11-27 02:33:00,
2013-11-26 20:38:00,16.8,6.8,30.46,NW,304,2.0,4.0,64,0.00,,,0.00,WeatherCatV1.21B27,2013-11-27 02:38:00,
2013-11-26 20:43:00,16.7,6.7,30.46,West,276,2.0,2.0,64,0.00,,,0.00,WeatherCatV1.21B27,2013-11-27 02:43:00,
2013-11-26 20:48:00,16.6,6.6,30.46,WNW,293,3.0,4.0,64,0.00,,,0.00,WeatherCatV1.21B27,2013-11-27 02:48:00,
2013-11-26 20:53:00,16.5,6.5,30.45,WNW,293,1.0,3.0,64,0.00,,,0.00,WeatherCatV1.21B27,2013-11-27 02:53:00,
2013-11-26 20:58:00,16.4,6.7,30.45,WNW,293,0.0,2.0,65,0.00,,,0.00,WeatherCatV1.21B27,2013-11-27 02:58:00,
2013-11-26 21:03:00,16.1,6.8,30.45,WNW,293,2.0,2.0,66,0.00,,,0.00,WeatherCatV1.21B27,2013-11-27 03:03:00,
2013-11-26 21:08:00,15.9,6.6,30.45,WNW,294,3.0,5.0,66,0.00,,,0.00,WeatherCatV1.21B27,2013-11-27 03:08:00,
2013-11-26 21:13:00,15.9,6.6,30.45,WNW,294,2.0,2.0,66,0.00,,,0.00,WeatherCatV1.21B27,2013-11-27 03:13:00,
2013-11-26 21:18:00,15.7,6.4,30.46,WNW,294,0.0,1.0,66,0.00,,,0.00,WeatherCatV1.21B27,2013-11-27 03:18:00,
2013-11-26 21:23:00,15.4,6.4,30.46,WNW,294,0.0,3.0,67,0.00,,,0.00,WeatherCatV1.21B27,2013-11-27 03:23:00,
2013-11-26 21:28:00,15.2,6.6,30.46,WNW,294,0.0,2.0,68,0.00,,,0.00,WeatherCatV1.21B27,2013-11-27 03:28:00,
2013-11-26 21:33:00,15.0,6.4,30.46,West,272,0.0,1.0,68,0.00,,,0.00,WeatherCatV1.21B27,2013-11-27 03:33:00,
2013-11-26 21:38:00,14.9,6.3,30.46,West,273,1.0,3.0,68,0.00,,,0.00,WeatherCatV1.21B27,2013-11-27 03:38:00,
2013-11-26 21:43:00,14.9,6.3,30.46,West,274,0.0,2.0,68,0.00,,,0.00,WeatherCatV1.21B27,2013-11-27 03:43:00,
2013-11-26 21:48:00,14.8,6.2,30.46,West,274,0.0,1.0,68,0.00,,,0.00,WeatherCatV1.21B27,2013-11-27 03:48:00,
2013-11-26 21:53:00,14.7,6.4,30.46,West,274,0.0,2.0,69,0.00,,,0.00,WeatherCatV1.21B27,2013-11-27 03:53:00,
2013-11-26 21:58:00,14.6,6.3,30.46,West,274,0.0,4.0,69,0.00,,,0.00,WeatherCatV1.21B27,2013-11-27 03:58:00,
2013-11-26 22:03:00,14.5,6.2,30.46,West,274,1.0,2.0,69,0.00,,,0.00,WeatherCatV1.21B27,2013-11-27 04:03:00,
2013-11-26 22:08:00,14.4,6.4,30.46,West,274,0.0,3.0,70,0.00,,,0.00,WeatherCatV1.21B27,2013-11-27 04:08:00,
2013-11-26 22:13:00,14.4,6.4,30.46,West,274,1.0,2.0,70,0.00,,,0.00,WeatherCatV1.21B27,2013-11-27 04:13:00,
2013-11-26 22:18:00,14.4,6.4,30.45,West,274,2.0,3.0,70,0.00,,,0.00,WeatherCatV1.21B27,2013-11-27 04:18:00,
2013-11-26 22:23:00,14.3,6.3,30.46,West,274,2.0,3.0,70,0.00,,,0.00,WeatherCatV1.21B27,2013-11-27 04:23:00,
2013-11-26 22:28:00,14.2,6.2,30.46,West,274,0.0,1.0,70,0.00,,,0.00,WeatherCatV1.21B27,2013-11-27 04:28:00,
2013-11-26 22:33:00,14.1,6.2,30.46,West,274,0.0,0.0,70,0.00,,,0.00,WeatherCatV1.21B27,2013-11-27 04:33:00,
2013-11-26 22:38:00,14.0,6.1,30.46,West,274,0.0,0.0,70,0.00,,,0.00,WeatherCatV1.21B27,2013-11-27 04:38:00,
2013-11-26 22:43:00,13.8,6.2,30.46,West,274,0.0,0.0,71,0.00,,,0.00,WeatherCatV1.21B27,2013-11-27 04:43:00,
2013-11-26 22:48:00,13.6,6.0,30.47,West,274,0.0,0.0,71,0.00,,,0.00,WeatherCatV1.21B27,2013-11-27 04:48:00,
2013-11-26 22:53:00,13.4,5.8,30.47,West,274,0.0,0.0,71,0.00,,,0.00,WeatherCatV1.21B27,2013-11-27 04:53:00,
2013-11-26 22:58:00,13.1,5.8,30.47,West,274,0.0,0.0,72,0.00,,,0.00,WeatherCatV1.21B27,2013-11-27 04:58:00,
2013-11-26 23:01:00,13.0,5.7,30.47,West,274,0.0,1.0,72,0.00,,,0.00,WeatherCatV1.21B27,2013-11-27 05:01:00,
2013-11-26 23:02:00,13.0,5.7,30.47,West,274,0.0,0.0,72,0.00,,,0.00,WeatherCatV1.21B27,2013-11-27 05:02:00,
2013-11-26 23:07:00,12.7,5.4,30.47,West,274,0.0,0.0,72,0.00,,,0.00,WeatherCatV1.21B27,2013-11-27 05:07:00,
2013-11-26 23:12:00,12.4,5.4,30.47,West,274,0.0,0.0,73,0.00,,,0.00,WeatherCatV1.21B27,2013-11-27 05:12:00,
2013-11-26 23:17:00,12.1,5.4,30.47,West,274,0.0,0.0,74,0.00,,,0.00,WeatherCatV1.21B27,2013-11-27 05:17:00,
2013-11-26 23:22:00,11.8,5.4,30.47,West,274,0.0,0.0,75,0.00,,,0.00,WeatherCatV1.21B27,2013-11-27 05:22:00,
2013-11-26 23:27:00,11.7,5.3,30.47,West,274,0.0,0.0,75,0.00,,,0.00,WeatherCatV1.21B27,2013-11-27 05:27:00,
2013-11-26 23:32:00,11.5,5.4,30.47,West,274,0.0,0.0,76,0.00,,,0.00,WeatherCatV1.21B27,2013-11-27 05:32:00,
2013-11-26 23:37:00,11.4,5.3,30.47,West,274,0.0,0.0,76,0.00,,,0.00,WeatherCatV1.21B27,2013-11-27 05:37:00,
2013-11-26 23:42:00,11.2,5.1,30.47,West,274,0.0,0.0,76,0.00,,,0.00,WeatherCatV1.21B27,2013-11-27 05:42:00,
2013-11-26 23:47:00,11.0,5.2,30.47,West,274,0.0,0.0,77,0.00,,,0.00,WeatherCatV1.21B27,2013-11-27 05:47:00,
2013-11-26 23:52:00,10.9,5.4,30.47,West,274,0.0,0.0,78,0.00,,,0.00,WeatherCatV1.21B27,2013-11-27 05:52:00,
2013-11-26 23:57:00,10.8,5.3,30.47,West,274,0.0,0.0,78,0.00,,,0.00,WeatherCatV1.21B27,2013-11-27 05:57:00,